map of XMD home
XMD - Airport
Location
City:  Madison, South Dakota, United States
Name:Madison Municipal Airport
ICAO:KMDS
IATA:XMD
FAA LID:MDS

Details
Type:Airport (Airfield)
Use:Public/Civil
Latitude:4400'59"N (44.016417)
Longitude:9705'08"W (-97.085610)
Datum:WGS 1984
Elevation:1718 ft (524 m)
Variation:3.39E (WMM2015 magnetic declination)
-0.09 annual change
Runways:2
Longest:5000 × 75 ft (1524 × 23 m), paved

Time
Time Zone:UTC-6 (DST-5)
Local Time:

Weather
METAR:KMDS 091310Z AUTO 30004KT 10SM CLR M18/M19 A3052 RMK AO2

Related Locations
Nearby:
Farthest:MQZ: 10587 mi / 17039 km
Margaret River [Margaret River Airport], WA, AU

Find:

   beyond  
but within

Other Information
Maps:
NOTAMs:
Links:
Sources:

  
flag of United States
flag of South Dakota
  

Sectional Chart

Flight Planning
at skyvector.com

Satellite Image

Google Maps Satellite view

 

Copyright © 2004-2016 Karl L. Swartz. All rights reserved.
The Great Circle Mapper name and logo are trademarks of the Great Circle Mapper.
All other trademarks mentioned herein belong to their respective owners.
Please see credits for attibutions and further copyright information.

  Follow gcmap on Facebook Follow gcmap on Twitter Follow gcmap on Google+ GCmap on LinkedIn

hCard Microformat

Geo Microformat